Location: Unspecified
(49.9820°N, 20.4363°E)
Time: 13:55:25
(UTC+02:00)

ISS - Pass Details

Date: 26 May 2018
Orbit: 402 x 407 km, 51.6° (Epoch: 20 May)

Event Time Altitude Azimuth Distance (km) Brightness Sun altitude
Rises 22:44:34 0° 276° (W) 2,321 0.5 -14.7°
Reaches altitude 10° 22:46:40 10° 280° (W) 1,460 -0.5 -14.8°
Maximum altitude 22:49:54 62° 1° (N) 457 -3.4 -15.1°
Drops below altitude 10° 22:53:09 10° 84° (E) 1,458 -1.2 -15.3°
Enters shadow 22:53:34 - 85° (E) 1,623 -1.0 -15.3°
